Location: Dunedin
(45.8670°S, 170.5000°E)
Time: 12:46:33
(UTC+13:00)

Daily predictions for brighter satellites

Satellite Brightness Start Highest point End
(mag) Time Altitude Azimuth Time Altitude Azimuth Time Altitude Azimuth
CZ-2C R/B 3.1 21:50:04 10° NE 21:55:19 49° ESE 22:00:31 10° S
USA 234 4.0 21:49:30 10° SE 21:56:00 61° SSW 22:02:29 10° WNW
Cosmos 1151 Rocket 3.2 21:52:36 10° N 21:56:47 51° E 22:01:03 10° SSE
Gbstr 26 Del rocket 4.3 21:53:30 10° WSW 21:57:36 36° S 22:01:15 10° ESE
Cosmos 2208 Rocket 4.1 21:57:17 10° SSW 22:02:34 89° WNW 22:07:50 10° NNE
Cosmos 2315 Rocket 4.1 21:57:28 10° S 22:03:54 74° E 22:10:12 10° NNE
SPOT 3 Rocket 3.6 21:58:46 10° SSE 22:04:04 84° ENE 22:09:16 10° NNW
CZ-4C R/B 4.0 22:02:05 10° SSW 22:06:56 23° SSE 22:11:13 10° ESE
H-2A R/B 4.1 22:10:28 10° NNE 22:13:07 13° NE 22:17:39 10° ENE
Cosmos 1633 Rocket 4.0 22:09:49 10° SSW 22:14:07 50° W 22:18:22 10° NNW
Cosmos 540 Rocket 4.1 22:09:34 10° S 22:14:35 43° ESE 22:19:09 12° NE
ATLAS 3B R/B 4.4 22:18:32 11° ENE 22:20:43 12° ENE 22:23:18 10° E
Cosmos 1862 3.3 22:22:55 10° S 22:27:02 82° E 22:31:04 10° N
BREEZE-M DEB (TANK) 2.1 22:23:36 10° WNW 22:27:50 43° NNE 22:29:46 12° E
Elektron 1 4.4 22:24:14 10° NW 22:29:02 76° SW 22:32:06 10° SE
Cosmos 1763 Rocket 3.8 22:23:46 10° SSW 22:29:02 67° WNW 22:34:10 10° N
Atlas Centaur 2 4.1 22:24:42 10° NW 22:31:21 26° N 22:36:40 14° NE
SJ-6B 3.6 22:28:57 10° S 22:32:41 53° WSW 22:36:25 10° NNW
Cosmos 1869 Rocket 4.3 22:29:21 10° S 22:33:31 38° ESE 22:36:30 17° NE
ERBS 3.0 22:30:57 10° SW 22:34:23 48° SE 22:37:00 16° ENE
Meteor 2-13 Rocket 4.4 22:31:08 10° N 22:37:12 78° E 22:43:23 10° SSE
Cosmos 724 4.3 22:31:24 10° NNW 22:37:20 86° ENE 22:43:11 10° SE
H-2A R/B 2.3 22:36:33 10° SSE 22:41:27 44° E 22:45:38 13° NNE
Cosmos 1486 Rocket 4.2 22:38:37 10° N 22:43:40 51° ENE 22:48:48 10° SSE
SL-16 R/B 2.4 22:40:36 10° NNW 22:46:18 80° WSW 22:52:04 10° SSE
Cosmos 1933 Rocket 4.3 22:43:21 10° SSW 22:47:42 53° W 22:51:58 10° N
Mayak 0.3 22:46:27 16° ENE 22:48:38 23° ESE 22:51:58 10° SSE
Cosmos 2360 Rocket 2.4 22:46:21 10° N 22:51:50 52° ENE 22:57:23 10° SE
Lacrosse 5 rocket 3.5 22:49:40 10° SSW 22:52:28 19° SSE 22:55:13 10° ESE
Lacrosse 5 4.0 22:53:35 10° WSW 22:57:04 18° WNW 23:00:30 10° NNW
Cosmos 2228 Rocket 3.9 22:53:09 10° NNW 22:57:30 53° WSW 23:01:55 10° S
Cosmos 1707 Rocket 4.1 22:55:32 22° NE 22:57:48 39° E 23:01:54 10° SSE
Cosmos 1242 Rocket 3.3 22:54:12 10° SSW 22:57:54 54° W 23:00:53 15° N
USA 186 4.4 22:55:51 10° SSW 22:58:03 19° WSW 23:00:07 10° WNW
Cosmos 1844 Rocket 3.3 22:53:34 10° SSW 22:59:01 46° ESE 23:02:38 20° ENE
Cosmos 841 Rocket 4.0 22:54:37 10° SSW 22:59:52 57° WNW 23:04:13 15° N
Cosmos 1933 3.3 22:58:17 15° N 23:01:43 79° E 23:05:55 10° SSE
Helios 1B rocket 2.5 23:00:45 24° NNE 23:03:05 64° ESE 23:07:16 10° S
COSMOS 2428 3.8 23:03:04 21° NE 23:04:51 25° ENE 23:09:28 10° SE
Cosmos 2322 Rocket 2.7 22:59:58 10° NW 23:05:37 63° WSW 23:11:21 10° SSE
Cosmos 1745 Rocket 4.0 23:05:15 13° N 23:10:58 73° E 23:17:21 10° SSE
Cosmos 968 Rocket 4.2 23:08:48 24° NE 23:10:59 35° ENE 23:15:44 10° SE
ADEOS Rocket 3.7 23:06:09 10° N 23:11:31 45° W 23:16:51 10° SSW
Cosmos 1386 Rocket 4.5 23:09:16 17° N 23:14:03 66° E 23:20:08 10° SSE
Terra 3.7 23:13:48 10° SE 23:16:30 15° E 23:16:50 15° E
Cosmos 1633 3.2 23:13:34 10° SSW 23:17:07 50° W 23:19:15 21° NNW
Resurs 01 Rocket 2.3 23:13:25 10° S 23:17:50 55° WSW 23:22:10 10° NNW
ARGOS 3.2 23:12:35 10° SSE 23:18:03 85° WSW 23:23:27 10° NNW
Cosmos 1709 Rocket 4.5 23:15:10 24° NNE 23:18:34 44° E 23:24:28 10° SSE
Spot 2 Rocket 3.5 23:15:26 10° SSE 23:20:39 89° WSW 23:25:12 13° NNW
Meteor 1-25 Rocket 4.3 23:16:37 10° S 23:22:33 75° ESE 23:25:57 27° NNE
MetOp-B 4.2 23:17:15 10° SSE 23:22:39 62° ENE 23:25:59 23° N
Cosmos 2322 3.7 23:18:11 14° N 23:22:59 61° ENE 23:28:38 10° SSE
Meteor 2-8 Rocket 4.5 23:19:56 10° S 23:26:06 80° W 23:30:14 22° N
Cosmos 2263 Rocket 3.8 23:21:30 10° SW 23:26:13 27° WNW 23:30:54 10° NNW
Cosmos 1606 2.7 23:25:40 35° N 23:27:12 69° E 23:31:10 10° SSE
CENTAUR R/B 4.1 23:28:52 20° ENE 23:29:31 21° ENE 23:34:37 10° ESE
Cosmos 2278 Rocket 3.5 23:30:20 10° S 23:35:19 30° SE 23:38:32 18° E
CZ-2C R/B 4.5 23:31:23 10° NNW 23:35:50 25° W 23:40:16 10° SW
Cosmos 2333 Rocket 2.9 23:35:00 30° NE 23:36:29 35° ENE 23:41:42 10° SE
IRAS Rocket 4.2 23:30:57 10° SSE 23:36:36 68° ENE 23:39:48 26° N
Cosmos 2181 Rocket 4.4 23:30:52 10° S 23:36:56 50° ESE 23:39:48 30° NE
Cosmos 2219 Rocket 2.7 23:36:24 32° NE 23:38:01 38° ENE 23:43:17 10° SE
SL-08 RB Rocket 4.2 23:34:34 10° S 23:39:04 60° WSW 23:42:47 15° NNW
IGS 5A 4.4 23:37:16 10° SSE 23:41:04 31° E 23:41:15 31° E
SeaSat 1 2.8 23:38:06 10° SE 23:42:52 43° ENE 23:44:00 37° NE
Gbstr 26 Del rocket 3.5 23:41:07 10° WSW 23:45:01 48° SSE 23:46:54 25° E
BREEZE-M DEB (TANK) 3.3 23:41:08 10° W 23:47:14 60° SSW 23:49:18 16° ESE
Cosmos 2237 Rocket 3.5 23:51:01 22° ENE 23:51:04 22° E 23:55:20 10° SE
Cosmos 1340 Rocket 3.0 23:50:56 49° ENE 23:51:15 51° E 23:55:12 10° SSE
Cosmos 1818 3.4 23:47:57 18° NNW 23:52:02 74° ENE 23:57:26 10° SE
